TPC724 BGSF-BGKK

Flight info

Callsign TPC724
Flight time N/A
Altitude 11000
Route M027F110 WUTAN1B WUTAN UW28 MASIK DCT SOMEV DCT
Aircraft C208/L-SDFGR/C

Departure

Time 2026-05-06 01:28
Airport Kangerlussuaq International Airport (BGSF)

Arrival

Time N/A
Airport Kulusuk Airport (BGKK)
Time Latitude Longitude Altitude Speed Heading
2026-05-06 01:05 67.01862 -50.69399 239 ft 0 kts 199°
2026-05-06 01:15 67.01856 -50.69401 239 ft 3 kts 176°
2026-05-06 01:15 67.01823 -50.69315 237 ft 0 kts 175°
2026-05-06 01:25 67.01820 -50.69315 237 ft 0 kts 173°
2026-05-06 01:25 67.01819 -50.69315 237 ft 0 kts 173°
2026-05-06 01:26 67.01813 -50.69313 237 ft 3 kts 173°
2026-05-06 01:26 67.01763 -50.69263 234 ft 12 kts 149°
2026-05-06 01:26 67.01690 -50.69151 228 ft 8 kts 155°
2026-05-06 01:26 67.01643 -50.69190 228 ft 0 kts 242°
2026-05-06 01:27 67.01643 -50.69191 228 ft 0 kts 240°
2026-05-06 01:27 67.01643 -50.69190 228 ft 0 kts 240°
2026-05-06 01:27 67.01623 -50.69284 230 ft 25 kts 239°
2026-05-06 01:27 67.01444 -50.70130 224 ft 81 kts 239°
2026-05-06 01:28 67.01118 -50.71463 430 ft 92 kts 236°
2026-05-06 01:28 67.00726 -50.72927 573 ft 110 kts 238°
2026-05-06 01:28 67.00339 -50.74681 874 ft 113 kts 241°
2026-05-06 01:28 66.99877 -50.76197 1304 ft 109 kts 222°
2026-05-06 01:29 66.99271 -50.77462 1554 ft 118 kts 232°
2026-05-06 01:29 66.98881 -50.79221 1998 ft 111 kts 238°
2026-05-06 01:29 66.98456 -50.80923 2257 ft 120 kts 242°
2026-05-06 01:29 66.97997 -50.82860 2494 ft 125 kts 240°
2026-05-06 01:30 66.97557 -50.84688 2890 ft 119 kts 242°
2026-05-06 01:30 66.97086 -50.86322 3294 ft 116 kts 219°
2026-05-06 01:30 66.96298 -50.86794 3613 ft 125 kts 171°
2026-05-06 01:30 66.95554 -50.85636 3913 ft 130 kts 124°
2026-05-06 01:31 66.95283 -50.83472 4226 ft 130 kts 92°
2026-05-06 01:31 66.95212 -50.81176 4548 ft 130 kts 91°
2026-05-06 01:31 66.95139 -50.78898 4838 ft 129 kts 92°
2026-05-06 01:31 66.95049 -50.76613 5104 ft 130 kts 93°
2026-05-06 01:32 66.94948 -50.74345 5370 ft 130 kts 93°
2026-05-06 01:32 66.94840 -50.72040 5635 ft 131 kts 93°
2026-05-06 01:32 66.94730 -50.69726 5894 ft 131 kts 93°
2026-05-06 01:32 66.94619 -50.67426 6143 ft 132 kts 93°
2026-05-06 01:33 66.94505 -50.65097 6393 ft 132 kts 92°
2026-05-06 01:33 66.94392 -50.62778 6640 ft 132 kts 92°
2026-05-06 01:33 66.94279 -50.60448 6886 ft 132 kts 93°
2026-05-06 01:33 66.94165 -50.58141 7118 ft 133 kts 93°
2026-05-06 01:34 66.94048 -50.55793 7367 ft 133 kts 93°
2026-05-06 01:34 66.93932 -50.53454 7572 ft 133 kts 93°
2026-05-06 01:34 66.93815 -50.51125 7805 ft 133 kts 93°
2026-05-06 01:34 66.93697 -50.48772 8026 ft 134 kts 93°
2026-05-06 01:35 66.93576 -50.46442 8256 ft 134 kts 95°
2026-05-06 01:35 66.93449 -50.44102 8447 ft 134 kts 95°
2026-05-06 01:35 66.93323 -50.41725 8652 ft 135 kts 95°
2026-05-06 01:35 66.93206 -50.39381 8853 ft 134 kts 92°
2026-05-06 01:36 66.93095 -50.37024 9032 ft 135 kts 92°
2026-05-06 01:36 66.92981 -50.34634 9257 ft 136 kts 94°
2026-05-06 01:36 66.92862 -50.32251 9490 ft 136 kts 94°
2026-05-06 01:36 66.92740 -50.29843 9707 ft 136 kts 95°
2026-05-06 01:37 66.92618 -50.27477 9911 ft 138 kts 94°
2026-05-06 01:37 66.92493 -50.25044 10142 ft 137 kts 94°
2026-05-06 01:37 66.92370 -50.22663 10343 ft 137 kts 94°
2026-05-06 01:37 66.92244 -50.20245 10547 ft 138 kts 94°
2026-05-06 01:38 66.92117 -50.17816 10764 ft 139 kts 94°
2026-05-06 01:38 66.91991 -50.15375 10958 ft 139 kts 94°
2026-05-06 01:38 66.91863 -50.12923 11118 ft 144 kts 94°
2026-05-06 01:38 66.91729 -50.10305 11137 ft 155 kts 94°
2026-05-06 01:39 66.91582 -50.07506 11134 ft 164 kts 95°
2026-05-06 01:39 66.91425 -50.04588 11124 ft 168 kts 95°
2026-05-06 01:39 66.91265 -50.01625 11130 ft 171 kts 95°
2026-05-06 01:39 66.91103 -49.98598 11138 ft 173 kts 95°
2026-05-06 01:40 66.90938 -49.95544 11115 ft 174 kts 95°
2026-05-06 01:40 66.90773 -49.92480 11126 ft 174 kts 95°
2026-05-06 01:40 66.90609 -49.89424 11130 ft 174 kts 95°
2026-05-06 01:40 66.90443 -49.86375 11127 ft 176 kts 95°
2026-05-06 01:41 66.90278 -49.83310 11122 ft 175 kts 95°
2026-05-06 01:41 66.89995 -49.78099 11114 ft 174 kts 95°
2026-05-06 01:41 66.89829 -49.75077 11126 ft 174 kts 95°
2026-05-06 01:42 66.89662 -49.72013 11126 ft 173 kts 95°
2026-05-06 01:42 66.89495 -49.69005 11127 ft 174 kts 95°
2026-05-06 01:42 66.89159 -49.66041 11115 ft 175 kts 103°
2026-05-06 01:42 66.89058 -49.62987 11122 ft 173 kts 92°
2026-05-06 01:43 66.88913 -49.59965 11113 ft 174 kts 94°
2026-05-06 01:43 66.88740 -49.56923 11120 ft 173 kts 95°
2026-05-06 01:43 66.88556 -49.53894 11121 ft 174 kts 96°
2026-05-06 01:43 66.88366 -49.50862 11117 ft 174 kts 96°
2026-05-06 01:44 66.88174 -49.47819 11116 ft 175 kts 96°
2026-05-06 01:44 66.87980 -49.44768 11128 ft 174 kts 96°
2026-05-06 01:44 66.87788 -49.41756 11127 ft 175 kts 96°
2026-05-06 01:44 66.87592 -49.38687 11125 ft 175 kts 96°
2026-05-06 01:45 66.87397 -49.35639 11120 ft 175 kts 96°
2026-05-06 01:45 66.87200 -49.32593 11122 ft 175 kts 97°
2026-05-06 01:45 66.87003 -49.29530 11121 ft 175 kts 97°
2026-05-06 01:45 66.86805 -49.26466 11116 ft 176 kts 97°
2026-05-06 01:46 66.86605 -49.23397 11113 ft 176 kts 97°
2026-05-06 01:46 66.86407 -49.20359 11106 ft 176 kts 97°
2026-05-06 01:46 66.86205 -49.17265 11110 ft 176 kts 97°
2026-05-06 01:46 66.86005 -49.14220 11103 ft 177 kts 97°
2026-05-06 01:47 66.85804 -49.11147 11101 ft 177 kts 97°
2026-05-06 01:47 66.85600 -49.08054 11093 ft 177 kts 97°
2026-05-06 01:47 66.85436 -49.04997 11086 ft 175 kts 84°
2026-05-06 01:47 66.85540 -49.01961 11080 ft 176 kts 97°
2026-05-06 01:48 66.85249 -48.98917 11096 ft 176 kts 101°
2026-05-06 01:48 66.84959 -48.95902 11092 ft 176 kts 101°
2026-05-06 01:48 66.84693 -48.92880 11078 ft 176 kts 99°
2026-05-06 01:48 66.84448 -48.89833 11088 ft 175 kts 98°
2026-05-06 01:49 66.84219 -48.86811 11090 ft 175 kts 98°
2026-05-06 01:49 66.84000 -48.83793 11092 ft 175 kts 97°
2026-05-06 01:49 66.83785 -48.80760 11093 ft 175 kts 97°
2026-05-06 01:49 66.83573 -48.77723 11099 ft 174 kts 97°
2026-05-06 01:50 66.83365 -48.74712 11109 ft 174 kts 97°
2026-05-06 01:50 66.83156 -48.71676 11113 ft 175 kts 97°
2026-05-06 01:50 66.82946 -48.68621 11108 ft 176 kts 97°
2026-05-06 01:50 66.82737 -48.65585 11109 ft 176 kts 97°
2026-05-06 01:51 66.82523 -48.62521 11110 ft 176 kts 97°
2026-05-06 01:51 66.82314 -48.59497 11121 ft 176 kts 97°
2026-05-06 01:51 66.82101 -48.56432 11118 ft 176 kts 97°
2026-05-06 01:51 66.81818 -48.52370 11121 ft 176 kts 97°
2026-05-06 01:52 66.81677 -48.50349 11123 ft 175 kts 96°
2026-05-06 01:52 66.81461 -48.47295 11125 ft 176 kts 96°
2026-05-06 01:52 66.81251 -48.44276 11125 ft 176 kts 96°
2026-05-06 01:52 66.81037 -48.41253 11135 ft 175 kts 96°
2026-05-06 01:53 66.80821 -48.38185 11135 ft 176 kts 96°
2026-05-06 01:53 66.80608 -48.35162 11138 ft 176 kts 96°
2026-05-06 01:53 66.80392 -48.32106 11142 ft 176 kts 98°
2026-05-06 01:53 66.80174 -48.29049 11144 ft 176 kts 98°
2026-05-06 01:54 66.79956 -48.26005 11151 ft 176 kts 98°
2026-05-06 01:54 66.79738 -48.22960 11153 ft 176 kts 98°
2026-05-06 01:54 66.79519 -48.19925 11152 ft 176 kts 98°
2026-05-06 01:54 66.79298 -48.16853 11156 ft 176 kts 97°
2026-05-06 01:55 66.79076 -48.13807 11159 ft 176 kts 97°
2026-05-06 01:55 66.78856 -48.10757 11157 ft 176 kts 97°
2026-05-06 01:55 66.78632 -48.07701 11160 ft 176 kts 97°
2026-05-06 01:55 66.78413 -48.04678 11167 ft 176 kts 97°
2026-05-06 01:56 66.78190 -48.01630 11168 ft 177 kts 97°
2026-05-06 01:56 66.77966 -47.98558 11174 ft 177 kts 97°
2026-05-06 01:56 66.77740 -47.95489 11169 ft 178 kts 97°
2026-05-06 01:56 66.77514 -47.92416 11167 ft 178 kts 97°
2026-05-06 01:57 66.77284 -47.89321 11159 ft 178 kts 97°
2026-05-06 01:57 66.77057 -47.86240 11174 ft 178 kts 97°
2026-05-06 01:57 66.76829 -47.83169 11167 ft 178 kts 97°
2026-05-06 01:57 66.76600 -47.80105 11163 ft 178 kts 97°
2026-05-06 01:58 66.76370 -47.77040 11157 ft 178 kts 97°
2026-05-06 01:58 66.76140 -47.73950 11157 ft 177 kts 97°
2026-05-06 01:58 66.75909 -47.70914 11166 ft 177 kts 97°
2026-05-06 01:58 66.75677 -47.67817 11163 ft 178 kts 97°
2026-05-06 01:59 66.75446 -47.64764 11161 ft 178 kts 97°
2026-05-06 01:59 66.75212 -47.61685 11157 ft 178 kts 97°
2026-05-06 01:59 66.74982 -47.58643 11162 ft 179 kts 97°
2026-05-06 01:59 66.74747 -47.55555 11161 ft 179 kts 97°
2026-05-06 02:00 66.74433 -47.51457 11158 ft 179 kts 97°
2026-05-06 02:00 66.74275 -47.49398 11150 ft 179 kts 97°
2026-05-06 02:00 66.74037 -47.46293 11154 ft 180 kts 97°
2026-05-06 02:00 66.73799 -47.43192 11140 ft 179 kts 98°
2026-05-06 02:01 66.73560 -47.40114 11142 ft 179 kts 98°
2026-05-06 02:01 66.73320 -47.37029 11154 ft 179 kts 97°
2026-05-06 02:01 66.73084 -47.33993 11143 ft 179 kts 98°
2026-05-06 02:01 66.72842 -47.30899 11130 ft 178 kts 98°
2026-05-06 02:02 66.72603 -47.27837 11141 ft 178 kts 98°
2026-05-06 02:02 66.72363 -47.24764 11151 ft 178 kts 98°
2026-05-06 02:02 66.72123 -47.21684 11138 ft 179 kts 98°
2026-05-06 02:02 66.71879 -47.18586 11137 ft 179 kts 98°
2026-05-06 02:03 66.71638 -47.15532 11146 ft 180 kts 98°
2026-05-06 02:03 66.71394 -47.12452 11134 ft 180 kts 98°
2026-05-06 02:03 66.71147 -47.09338 11119 ft 180 kts 98°
2026-05-06 02:03 66.70901 -47.06255 11118 ft 179 kts 98°
2026-05-06 02:04 66.70656 -47.03170 11125 ft 179 kts 98°
2026-05-06 02:04 66.70410 -47.00110 11112 ft 179 kts 98°
2026-05-06 02:04 66.70161 -46.97017 11106 ft 179 kts 98°
2026-05-06 02:04 66.69914 -46.93951 11108 ft 180 kts 98°
2026-05-06 02:05 66.69666 -46.90871 11112 ft 179 kts 98°
2026-05-06 02:05 66.69415 -46.87773 11111 ft 179 kts 98°
2026-05-06 02:05 66.69167 -46.84692 11093 ft 179 kts 98°
2026-05-06 02:05 66.68834 -46.80604 11108 ft 179 kts 98°
2026-05-06 02:06 66.68669 -46.78584 11103 ft 179 kts 98°
2026-05-06 02:06 66.68420 -46.75516 11101 ft 179 kts 98°
2026-05-06 02:06 66.68172 -46.72479 11110 ft 178 kts 98°
2026-05-06 02:06 66.67918 -46.69391 11114 ft 179 kts 98°
2026-05-06 02:07 66.67665 -46.66323 11109 ft 179 kts 98°
2026-05-06 02:07 66.67413 -46.63270 11113 ft 179 kts 98°
2026-05-06 02:07 66.67158 -46.60195 11108 ft 179 kts 98°
2026-05-06 02:07 66.66902 -46.57115 11114 ft 179 kts 98°
2026-05-06 02:08 66.66646 -46.54027 11119 ft 179 kts 98°
2026-05-06 02:08 66.66392 -46.50975 11104 ft 179 kts 98°
2026-05-06 02:08 66.66134 -46.47892 11108 ft 179 kts 98°
2026-05-06 02:08 66.65877 -46.44829 11106 ft 179 kts 98°
2026-05-06 02:09 66.65623 -46.41806 11112 ft 179 kts 98°
2026-05-06 02:09 66.65366 -46.38750 11109 ft 179 kts 98°
2026-05-06 02:09 66.65107 -46.35670 11105 ft 179 kts 98°
2026-05-06 02:09 66.64763 -46.31605 11119 ft 179 kts 99°
2026-05-06 02:10 66.64590 -46.29573 11118 ft 179 kts 99°
2026-05-06 02:10 66.64332 -46.26534 11111 ft 179 kts 99°
2026-05-06 02:10 66.64069 -46.23456 11123 ft 179 kts 99°
2026-05-06 02:10 66.63720 -46.19360 11111 ft 179 kts 99°
2026-05-06 02:11 66.63546 -46.17335 11117 ft 179 kts 99°
2026-05-06 02:11 66.63283 -46.14280 11119 ft 179 kts 99°
2026-05-06 02:11 66.63017 -46.11206 11117 ft 179 kts 99°
2026-05-06 02:11 66.62754 -46.08159 11125 ft 179 kts 99°
2026-05-06 02:12 66.62489 -46.05100 11121 ft 179 kts 99°
2026-05-06 02:12 66.62222 -46.02019 11128 ft 179 kts 99°
2026-05-06 02:12 66.61959 -45.98994 11131 ft 179 kts 99°
2026-05-06 02:12 66.61692 -45.95929 11126 ft 179 kts 99°
2026-05-06 02:13 66.61426 -45.92882 11123 ft 179 kts 99°
2026-05-06 02:13 66.61158 -45.89812 11131 ft 178 kts 99°
2026-05-06 02:13 66.60892 -45.86773 11136 ft 179 kts 99°
2026-05-06 02:13 66.60625 -45.83728 11146 ft 178 kts 99°
2026-05-06 02:14 66.60356 -45.80689 11153 ft 178 kts 99°
2026-05-06 02:14 66.60089 -45.77690 11165 ft 178 kts 99°
2026-05-06 02:14 66.59819 -45.74644 11165 ft 178 kts 99°
2026-05-06 02:14 66.59548 -45.71596 11168 ft 178 kts 99°
2026-05-06 02:15 66.59276 -45.68551 11170 ft 179 kts 99°
2026-05-06 02:15 66.59003 -45.65493 11171 ft 179 kts 99°
2026-05-06 02:15 66.58642 -45.61442 11176 ft 179 kts 99°
2026-05-06 02:15 66.58459 -45.59400 11184 ft 179 kts 99°
2026-05-06 02:16 66.58186 -45.56367 11193 ft 178 kts 99°
2026-05-06 02:16 66.57821 -45.52331 11191 ft 179 kts 99°
2026-05-06 02:16 66.57636 -45.50290 11191 ft 179 kts 99°
2026-05-06 02:16 66.57365 -45.47287 11196 ft 178 kts 99°
2026-05-06 02:17 66.57089 -45.44254 11211 ft 178 kts 99°
2026-05-06 02:17 66.56722 -45.40223 11214 ft 178 kts 99°
2026-05-06 02:17 66.56538 -45.38203 11212 ft 178 kts 99°
2026-05-06 02:17 66.56257 -45.35143 11211 ft 179 kts 99°
2026-05-06 02:18 66.55980 -45.32112 11213 ft 179 kts 100°
2026-05-06 02:18 66.55703 -45.29093 11221 ft 179 kts 100°
2026-05-06 02:18 66.55423 -45.26043 11225 ft 178 kts 100°
2026-05-06 02:18 66.55050 -45.22005 11225 ft 179 kts 101°
2026-05-06 02:19 66.54864 -45.19993 11233 ft 178 kts 101°
2026-05-06 02:19 66.54583 -45.16975 11236 ft 178 kts 100°
2026-05-06 02:19 66.54304 -45.13968 11235 ft 179 kts 101°
2026-05-06 02:19 66.53926 -45.09916 11251 ft 178 kts 100°
2026-05-06 02:20 66.53453 -45.04861 11245 ft 179 kts 100°
2026-05-06 02:20 66.53172 -45.01857 11247 ft 178 kts 100°
2026-05-06 02:20 66.52889 -44.98856 11245 ft 179 kts 100°
2026-05-06 02:21 66.52508 -44.94821 11248 ft 179 kts 100°
2026-05-06 02:21 66.52319 -44.92802 11252 ft 178 kts 100°
2026-05-06 02:21 66.52032 -44.89774 11256 ft 178 kts 100°
2026-05-06 02:21 66.51746 -44.86762 11256 ft 178 kts 101°
2026-05-06 02:22 66.51461 -44.83745 11262 ft 178 kts 101°
2026-05-06 02:22 66.51170 -44.80713 11268 ft 178 kts 101°
2026-05-06 02:22 66.50885 -44.77733 11270 ft 178 kts 100°
2026-05-06 02:22 66.50594 -44.74693 11278 ft 178 kts 100°
2026-05-06 02:23 66.50310 -44.71722 11283 ft 178 kts 100°
2026-05-06 02:23 66.50019 -44.68698 11291 ft 177 kts 100°
2026-05-06 02:23 66.49731 -44.65725 11296 ft 177 kts 100°
2026-05-06 02:23 66.49441 -44.62705 11299 ft 177 kts 100°
2026-05-06 02:24 66.49152 -44.59727 11300 ft 177 kts 100°
2026-05-06 02:24 66.48864 -44.56749 11303 ft 177 kts 101°
2026-05-06 02:24 66.48571 -44.53737 11303 ft 177 kts 100°
2026-05-06 02:24 66.48282 -44.50778 11309 ft 176 kts 100°
2026-05-06 02:25 66.47991 -44.47798 11310 ft 176 kts 100°
2026-05-06 02:25 66.47703 -44.44857 11313 ft 175 kts 100°
2026-05-06 02:25 66.47415 -44.41913 11311 ft 175 kts 100°
2026-05-06 02:25 66.47123 -44.38935 11314 ft 175 kts 100°
2026-05-06 02:26 66.46835 -44.36004 11319 ft 175 kts 100°
2026-05-06 02:26 66.46544 -44.33053 11323 ft 174 kts 101°
2026-05-06 02:26 66.46250 -44.30094 11322 ft 174 kts 101°
2026-05-06 02:26 66.45958 -44.27147 11321 ft 174 kts 102°
2026-05-06 02:27 66.45671 -44.24247 11317 ft 174 kts 102°
2026-05-06 02:27 66.45377 -44.21291 11316 ft 175 kts 102°
2026-05-06 02:27 66.44984 -44.17338 11316 ft 175 kts 102°
2026-05-06 02:27 66.44789 -44.15384 11319 ft 175 kts 102°
2026-05-06 02:28 66.44492 -44.12436 11325 ft 176 kts 102°
2026-05-06 02:28 66.44194 -44.09479 11331 ft 175 kts 102°
2026-05-06 02:28 66.43896 -44.06521 11329 ft 175 kts 102°
2026-05-06 02:28 66.43599 -44.03578 11335 ft 175 kts 102°